GEFSCGP_500_meanwind_198.txt.gz
Wind_Speed
7 6 6 7 7 7 8 7 7 7 6 7 6 7 7 6 6 7 6 6 5 6 5 4 4 4 4 4 4 4 4 4 4 4 3 3 3 3 2 1 1 1 2 2
7 7 7 7 7 8 7 7 7 7 7 7 7 7 7 6 6 6 6 6 5 5 4 4 4 4 3 3 4 4 3 3 3 3 3 3 3 3 2 1 1 1 2 1
8 8 8 8 8 7 7 7 7 7 7 7 7 6 6 6 6 6 6 5 4 5 5 4 4 3 3 4 4 3 3 3 3 3 3 3 2 2 1 1 1 1 1 1
8 8 8 8 8 7 6 7 7 7 7 7 7 6 7 7 6 5 5 5 4 5 4 4 4 4 3 3 4 3 3 3 4 3 3 3 3 2 2 2 2 1 1 1
7 7 7 6 7 7 7 7 7 7 7 6 6 6 6 6 6 5 5 4 4 4 4 4 4 4 4 4 4 3 4 4 4 4 3 3 4 4 3 2 2 1 1 1
8 7 7 7 7 7 7 7 7 7 7 6 6 6 5 5 5 5 5 4 4 4 4 3 4 4 4 4 4 3 3 4 4 4 3 3 3 4 4 3 3 3 2 2
8 8 7 7 7 7 6 6 7 7 6 5 6 6 5 5 4 5 5 4 4 5 4 4 4 5 5 5 5 4 4 4 4 3 3 3 4 4 4 4 4 3 3 2
8 7 7 7 6 7 6 6 7 8 7 6 6 6 5 5 5 4 5 5 6 5 5 4 5 5 5 5 5 5 5 4 4 4 3 3 2 3 4 4 4 4 3 3
9 7 7 7 7 7 7 7 8 8 7 7 7 7 6 6 6 5 5 5 6 6 6 6 6 5 5 5 5 4 4 5 5 5 4 3 2 2 2 3 4 4 4 4
9 9 8 8 8 8 8 8 8 8 8 8 8 8 7 7 6 6 6 6 6 6 6 6 6 5 5 5 5 4 5 5 5 5 4 3 3 3 3 3 3 4 4 4
10 10 9 10 9 9 9 9 9 9 9 9 9 8 7 7 7 7 7 7 7 7 6 6 5 5 5 5 5 5 5 6 6 6 5 5 4 4 5 4 4 4 4 4
12 12 11 10 10 10 10 10 10 10 10 10 10 8 8 8 8 8 7 7 7 7 6 6 6 6 6 6 6 6 6 6 7 7 6 6 6 6 6 6 6 6 6 6
13 13 13 12 11 11 10 11 11 11 11 11 10 9 9 9 9 8 8 7 7 7 7 6 6 7 7 7 7 7 7 7 7 7 7 7 7 7 7 7 7 7 7 7
14 14 14 13 12 12 11 11 11 12 12 11 11 10 10 9 9 8 8 7 7 7 7 7 7 7 7 7 7 7 7 8 8 8 8 8 9 8 8 8 8 8 8 8
15 15 15 15 14 13 14 13 12 11 11 12 11 11 10 10 9 8 9 8 8 8 7 7 7 7 8 8 8 8 9 9 9 9 9 9 9 9 9 9 9 9 9 9
17 16 16 16 15 15 15 14 14 13 13 13 12 12 12 11 10 10 10 9 9 8 7 7 7 7 8 8 8 8 9 10 10 10 10 10 10 10 10 10 10 10 10 11
18 17 17 17 16 17 17 16 16 15 14 14 14 13 13 13 13 12 11 11 10 9 8 8 8 8 8 8 8 9 9 10 10 11 10 10 11 11 11 11 12 12 12 12
19 19 19 19 18 19 17 17 16 16 16 15 15 14 14 14 13 13 13 12 11 10 10 9 9 8 9 9 10 10 10 11 11 11 11 11 12 12 12 13 13 13 13 13
21 21 21 21 21 20 18 18 17 17 17 16 16 15 15 15 14 14 14 13 13 12 11 11 10 10 10 10 11 11 12 12 12 12 12 12 12 12 13 13 13 13 14 14
23 22 23 23 22 22 19 19 19 19 18 16 17 17 16 16 16 16 15 15 14 13 13 12 11 11 11 11 13 13 13 12 12 13 14 14 13 13 13 14 15 14 15 15
24 24 24 24 24 23 20 19 20 20 18 17 17 17 17 17 17 17 17 16 16 15 14 14 13 13 13 14 14 14 14 14 14 14 15 15 14 14 14 14 15 15 16 16
24 25 25 24 25 23 21 21 21 21 20 19 18 18 18 18 18 18 18 18 17 17 17 16 15 15 15 15 16 16 16 16 16 16 16 16 16 16 15 16 16 17 17 17
25 24 24 25 24 23 22 22 21 21 21 21 20 20 19 19 19 19 19 19 18 18 18 18 17 16 15 15 16 17 17 17 17 17 17 17 17 17 17 17 17 18 18 18
26 25 26 26 24 22 22 22 22 21 21 21 20 20 20 20 20 20 19 20 20 20 19 19 18 18 17 16 16 17 17 18 18 18 18 17 17 18 18 18 19 19 19 19
28 27 27 26 25 24 24 23 23 23 22 21 20 20 20 21 21 21 21 21 21 21 21 20 20 20 19 18 18 17 18 18 19 19 19 19 19 19 19 19 19 20 20 19
28 29 28 27 26 26 25 24 24 23 23 23 22 22 22 22 22 22 23 23 22 22 21 22 21 21 20 19 19 19 19 19 19 19 19 20 20 20 20 19 19 20 19 20

GEFSCGP_500_meanwind_204.txt.gz
Wind_Speed
7 7 7 8 8 8 8 8 8 8 7 7 7 7 7 7 7 7 7 6 5 5 5 4 4 3 3 3 3 4 4 4 4 4 3 3 2 3 3 3 2 2 2 2
7 7 8 8 8 8 8 8 8 8 8 8 7 7 7 7 7 6 6 6 4 4 4 4 4 3 3 3 4 4 4 4 4 4 4 3 3 2 3 3 3 3 2 2
8 8 8 8 8 8 8 8 8 8 8 8 8 7 7 7 7 6 6 6 4 4 4 4 4 3 3 3 3 4 4 3 4 4 3 4 3 3 3 3 3 3 3 3
7 7 7 8 8 8 8 8 8 7 7 7 7 6 7 7 7 7 7 6 5 4 4 4 4 4 4 3 3 3 3 3 3 3 4 4 3 4 4 3 3 2 2 3
7 7 7 8 8 7 7 7 7 7 8 8 7 7 6 7 7 7 7 6 5 5 5 4 4 4 4 4 3 3 3 3 3 3 3 4 4 4 4 4 4 3 3 3
8 8 8 8 8 8 7 7 7 7 8 8 8 8 7 7 7 7 7 6 6 6 5 5 5 5 5 5 4 3 3 3 3 3 3 3 3 3 3 3 4 4 4 3
9 9 8 8 8 8 7 7 7 8 8 8 8 8 8 8 8 8 7 7 7 6 6 6 6 6 5 5 4 4 3 3 3 3 3 3 2 2 2 2 3 4 4 3
10 10 10 9 8 8 8 8 8 9 9 8 8 8 8 8 9 9 8 7 6 6 6 6 6 6 6 5 4 4 4 4 3 3 3 3 3 3 2 3 3 3 3 3
12 12 11 10 10 9 9 9 9 9 9 9 9 9 9 9 9 9 8 8 8 8 8 8 7 7 7 6 5 5 5 4 4 4 4 4 3 3 2 3 3 3 4 3
13 12 11 11 11 10 10 9 9 9 10 10 9 9 9 9 9 8 8 9 9 9 9 9 8 7 7 7 7 7 6 5 5 5 5 5 4 3 3 2 3 4 4 4
13 13 11 11 12 11 10 10 9 10 10 10 10 9 9 9 9 9 8 8 9 9 8 8 8 8 8 8 7 7 6 6 5 5 5 5 5 4 3 3 4 4 4 4
14 14 13 13 13 13 12 11 11 11 10 11 11 10 9 9 9 9 9 8 8 7 7 8 8 9 9 8 8 8 7 6 6 5 6 6 6 6 5 4 4 5 5 5
15 15 14 14 14 14 14 13 13 12 12 12 11 10 10 10 10 10 9 9 8 8 8 8 9 9 8 8 8 8 7 7 7 6 6 7 7 7 7 6 6 6 6 6
16 16 15 15 15 15 15 15 14 13 13 13 12 10 10 10 11 11 10 10 9 8 9 9 9 8 8 8 9 9 8 8 8 8 7 7 7 8 9 9 8 8 8 7
17 17 16 16 16 16 16 15 14 14 13 13 12 12 10 10 11 11 11 11 11 10 9 9 9 8 9 9 9 9 9 9 10 9 9 8 8 8 9 9 9 9 9 10
18 18 18 17 17 17 16 16 15 15 14 13 13 12 12 11 12 12 12 12 12 11 10 10 10 10 10 10 10 10 10 10 10 10 10 9 9 10 10 10 10 11 11 11
19 19 19 18 18 18 16 15 16 15 15 15 14 13 13 13 13 13 13 13 13 12 11 11 11 11 11 11 11 11 11 12 12 11 11 10 11 11 11 11 11 12 12 11
21 21 21 20 19 19 17 16 16 16 16 16 15 15 15 15 15 15 15 14 14 14 13 13 13 13 13 12 12 12 12 12 12 12 12 12 12 12 12 12 13 13 13 13
22 22 22 22 21 20 18 17 17 17 16 16 16 16 17 16 16 16 16 16 15 14 14 14 14 14 13 13 13 14 14 13 13 13 14 14 14 13 14 14 14 14 14 15
23 23 23 23 23 22 19 19 19 19 18 18 18 18 18 18 17 17 17 17 17 16 16 15 15 15 15 14 14 14 14 14 14 14 14 14 14 14 15 15 15 16 16 16
24 24 24 24 24 23 21 21 20 20 19 19 19 19 19 19 19 19 19 19 19 18 17 16 16 15 15 15 15 15 15 15 15 15 15 14 15 15 16 16 17 17 17 17
25 26 26 25 25 24 22 22 22 21 21 20 20 20 20 20 20 20 20 20 20 20 19 18 17 17 16 16 16 16 16 15 15 16 17 16 16 16 17 17 17 18 18 18
26 26 27 26 25 24 23 22 23 23 22 21 21 21 21 21 21 21 21 21 21 21 21 20 20 19 19 19 18 17 17 17 16 17 17 17 17 18 18 18 18 19 18 18
26 27 27 26 25 24 24 23 23 23 23 23 22 22 23 22 22 22 22 22 21 21 22 21 21 21 20 20 20 19 20 19 19 18 18 19 19 18 19 19 19 19 19 19
27 27 27 26 24 24 25 24 24 24 24 24 23 23 23 23 23 23 23 23 23 23 22 23 23 23 23 22 22 22 22 22 21 21 21 20 19 19 19 19 19 19 19 19
28 28 28 27 26 26 26 26 26 25 25 25 25 24 23 23 23 23 23 23 23 23 23 23 24 24 24 24 23 23 23 23 23 23 22 21 21 21 20 20 20 20 19 20

GEFSCGP_500_meanwind_210.txt.gz
Wind_Speed
4 4 5 4 4 5 5 4 4 4 4 4 5 6 7 7 7 7 7 7 6 6 6 6 5 4 4 4 5 5 5 5 5 4 4 4 4 5 5 4 3 3 3 2
4 5 5 5 4 4 5 5 4 4 4 4 5 6 7 7 7 7 7 6 6 6 6 6 5 5 5 5 5 5 5 5 5 5 5 5 4 4 5 5 4 4 4 3
5 5 5 5 5 5 5 5 4 4 4 4 5 5 7 7 7 6 6 6 6 6 6 6 5 5 5 5 5 5 5 5 5 6 5 5 5 4 5 5 5 5 5 4
5 5 5 5 5 5 5 5 4 3 3 4 5 5 6 7 6 6 6 6 6 6 6 5 5 6 6 6 6 6 5 5 5 5 4 5 5 5 5 5 5 5 5 4
6 6 5 5 5 5 6 5 5 4 4 5 6 6 6 7 6 6 6 7 6 6 6 6 6 6 6 6 6 6 5 5 5 5 4 4 5 4 5 4 4 4 4 4
7 6 6 6 6 6 6 5 5 5 5 5 6 6 6 7 7 6 7 7 6 6 6 6 6 6 6 6 6 5 5 5 5 5 5 5 5 5 5 4 4 4 4 5
7 7 7 7 7 6 6 6 6 6 6 6 6 7 7 8 7 7 7 7 6 6 6 6 7 7 6 6 6 6 6 5 6 6 5 5 5 5 5 4 4 4 4 4
9 8 8 7 7 7 7 6 7 7 7 8 8 8 8 8 8 8 8 7 7 7 7 7 7 7 7 7 6 6 6 6 6 6 5 5 5 5 5 5 4 5 5 5
9 9 9 8 8 8 8 7 8 8 8 9 9 9 8 8 8 8 8 8 8 7 7 8 8 8 7 7 7 7 6 6 6 6 5 5 5 5 5 5 5 5 5 5
10 11 10 10 10 9 9 9 9 8 9 9 9 9 9 8 8 8 8 8 7 7 7 8 8 8 8 7 8 7 7 6 6 6 6 6 6 5 5 5 5 5 5 5
11 11 12 12 11 11 10 10 10 10 10 9 9 9 9 9 9 8 8 8 8 8 8 8 8 8 8 8 8 8 7 6 6 6 7 7 6 6 6 6 6 5 5 5
12 12 13 13 12 12 11 11 11 10 10 10 10 10 9 9 9 9 9 9 9 9 9 9 8 9 9 9 9 8 7 7 7 7 7 7 7 7 7 6 6 6 6 5
13 13 13 13 13 12 12 11 11 11 11 11 11 11 10 9 10 10 9 9 10 10 10 9 9 10 10 9 9 9 9 9 9 8 9 9 8 8 7 7 7 7 7 7
14 14 14 14 14 13 12 12 12 12 12 12 12 12 11 10 10 10 11 10 10 10 10 11 10 10 11 11 11 10 10 10 10 10 10 10 10 9 9 9 8 8 8 8
16 15 15 15 14 14 13 13 13 13 13 13 13 14 13 11 11 11 11 11 11 10 11 11 11 11 11 11 12 11 11 11 11 10 10 11 11 11 10 10 10 9 9 8
17 17 17 16 16 16 15 15 14 14 14 15 15 14 13 12 12 12 13 12 12 12 11 11 11 12 12 12 12 13 12 12 12 11 11 12 12 11 11 11 11 11 11 10
18 18 18 18 18 18 17 15 16 15 16 16 16 15 14 13 13 13 14 14 14 13 13 12 12 12 12 12 13 14 14 13 12 12 12 12 12 12 12 12 12 12 12 12
19 19 19 19 20 20 18 17 16 16 16 17 17 16 15 14 14 14 14 14 14 14 14 14 14 13 14 14 14 14 14 14 13 13 13 13 13 13 13 12 13 13 13 13
21 21 21 21 21 21 19 18 17 16 16 16 17 17 17 16 15 15 15 15 15 15 15 15 15 15 15 15 15 16 16 15 14 14 14 14 14 14 14 14 14 14 14 14
22 22 22 22 22 22 20 19 18 17 17 17 17 17 17 17 17 16 16 16 15 15 16 16 16 16 16 17 17 17 17 16 16 15 16 15 15 16 16 16 16 15 15 16
22 23 23 23 23 23 21 19 19 18 18 18 18 18 18 18 18 17 17 17 16 17 17 18 18 17 17 17 18 18 18 18 18 17 17 17 17 17 17 18 17 17 17 17
24 24 23 23 24 23 21 21 20 20 19 20 20 19 19 19 18 18 18 18 18 18 18 19 19 19 19 19 19 19 18 18 19 18 18 18 18 18 18 19 19 18 18 18
26 25 24 24 24 23 22 22 21 21 21 21 20 20 19 20 20 20 19 19 20 20 20 20 21 20 20 20 20 19 19 19 20 20 20 20 20 20 20 19 20 19 19 19
27 27 27 26 25 25 24 24 23 22 22 22 22 21 21 21 21 21 21 22 22 22 21 21 22 22 21 21 20 20 20 20 20 21 21 21 22 21 21 21 20 19 19 19
29 28 28 27 26 26 26 26 25 24 23 23 23 22 22 22 22 23 23 23 23 23 23 23 23 23 23 22 22 22 21 21 21 21 21 21 22 22 22 21 20 20 19 20
29 28 28 27 26 26 26 27 26 25 24 24 24 23 23 23 23 23 23 23 23 23 23 23 24 24 24 23 23 23 23 22 22 22 23 23 23 23 23 22 22 22 22 22

GEFSCGP_500_meanwind_216.txt.gz
Wind_Speed
4 4 3 4 4 5 5 6 7 7 8 8 8 8 9 9 10 9 9 9 10 8 8 8 7 6 6 7 7 7 7 7 7 7 6 6 6 6 5 5 5 5 5 4
4 4 4 5 5 5 6 6 7 7 8 8 8 8 9 9 10 9 9 9 9 9 8 7 8 7 7 7 8 8 7 7 7 7 6 7 6 6 6 6 6 5 5 4
5 5 5 5 5 6 6 6 7 7 7 8 8 8 9 9 9 10 9 10 10 9 8 7 7 7 7 8 8 8 7 6 7 7 6 6 6 6 6 6 6 5 5 5
6 6 6 6 6 6 6 6 6 6 7 7 9 9 9 11 10 10 10 10 10 9 9 8 7 7 7 8 8 7 7 7 7 7 7 7 7 6 6 6 6 5 6 5
7 7 7 7 7 6 6 6 6 6 7 7 9 10 11 12 12 11 11 11 10 10 9 9 9 8 8 8 8 8 7 7 8 8 7 7 7 7 7 6 6 6 6 6
8 8 8 8 7 6 6 6 6 6 7 8 9 10 13 13 13 13 12 12 10 10 10 9 9 9 9 9 9 8 8 8 8 8 8 8 8 7 7 6 6 5 6 6
10 9 9 8 8 7 7 6 6 6 8 9 10 12 13 14 13 13 12 12 12 11 10 10 9 9 9 9 9 9 8 8 8 8 8 8 8 7 6 6 5 6 6 6
11 11 10 9 9 8 8 7 7 7 7 9 12 13 13 14 13 13 13 13 12 12 11 10 9 9 9 10 9 9 8 9 8 8 8 8 7 7 7 6 6 6 6 6
11 12 11 10 10 9 9 9 9 9 9 9 11 13 12 12 13 13 13 12 12 12 11 10 10 10 10 10 9 9 9 9 8 9 9 8 7 7 7 7 6 6 6 6
13 12 12 12 11 11 10 10 10 10 10 9 11 13 14 12 12 13 13 12 12 11 11 10 11 10 11 11 10 10 10 9 8 9 9 8 8 7 7 7 7 6 6 7
14 14 13 13 12 12 12 11 11 11 11 10 9 12 13 13 13 13 13 13 12 12 11 11 12 11 11 11 10 10 10 10 9 9 9 9 8 8 8 8 7 7 7 7
15 15 15 14 14 13 13 13 12 12 12 11 12 14 13 13 13 14 14 13 13 13 12 12 12 12 11 11 11 11 10 10 10 9 9 9 8 8 8 8 8 7 7 7
16 16 16 15 15 14 14 14 13 13 13 13 13 15 15 14 13 14 13 14 14 14 13 12 12 12 12 12 12 12 11 10 10 10 9 9 10 9 9 9 8 8 8 8
17 17 17 16 16 16 15 14 15 15 14 13 14 15 16 16 15 15 15 15 15 14 13 13 13 13 13 13 13 12 12 11 10 11 10 11 11 11 10 9 9 9 9 9
17 17 17 17 17 17 17 16 16 16 15 15 16 16 16 16 16 15 15 15 15 14 14 13 13 13 13 13 12 12 12 11 11 11 12 11 12 12 11 10 10 10 10 10
19 19 18 18 17 17 18 17 17 17 16 17 17 18 17 17 17 16 16 15 14 14 15 15 15 14 13 13 13 12 12 12 13 13 13 13 13 12 12 11 11 11 12 12
20 19 19 18 18 19 18 17 17 18 18 18 18 18 18 18 18 17 17 17 16 16 16 17 16 15 14 14 14 14 13 14 14 14 14 14 14 13 13 13 13 13 13 13
20 20 20 19 19 20 18 18 18 19 19 19 19 19 19 19 19 18 18 18 17 17 18 17 17 16 16 15 15 15 15 15 15 15 16 16 15 14 14 14 14 14 15 15
21 21 22 22 22 22 20 20 19 19 20 19 20 20 20 19 19 19 18 18 17 18 18 18 17 17 17 16 16 16 16 16 16 16 16 16 16 16 16 16 16 15 16 16
23 23 24 24 24 24 22 20 20 20 20 19 20 20 20 20 19 19 19 18 17 18 18 18 18 18 18 17 17 17 18 18 17 17 17 17 17 17 17 17 17 17 17 17
24 25 25 25 25 26 23 22 22 22 22 21 21 21 20 20 20 20 20 19 18 19 19 19 19 19 19 18 18 19 19 19 18 19 19 18 18 19 19 19 19 19 19 19
26 26 26 26 27 26 24 24 24 24 24 23 22 22 22 21 21 21 21 20 20 20 20 20 20 20 20 20 20 20 21 21 20 20 20 19 19 20 20 20 20 21 21 21
28 27 27 27 27 26 26 25 25 26 26 25 24 24 23 23 22 22 21 22 22 22 22 21 21 21 20 21 21 22 22 22 22 21 21 21 21 21 21 21 22 22 22 23
29 29 29 29 29 28 29 28 27 27 27 27 26 25 24 24 23 23 23 23 23 23 23 23 22 21 21 22 22 22 22 23 22 22 22 22 22 23 23 23 23 24 23 23
31 30 30 30 30 30 30 30 29 28 28 28 27 26 25 25 24 24 24 24 24 25 24 24 23 22 22 23 23 24 23 23 23 22 22 23 23 24 24 24 24 24 25 24
31 32 31 31 31 32 31 31 31 30 30 29 28 27 27 27 26 25 25 25 25 25 25 25 24 24 24 24 24 24 24 24 24 23 23 24 24 25 25 24 25 25 26 26

GEFSCGP_500_meanwind_222.txt.gz
Wind_Speed
3 3 3 3 3 3 4 4 5 4 4 5 5 6 6 6 7 7 7 6 6 6 5 5 5 5 5 4 5 5 5 5 5 4 3 3 3 4 4 4 4 5 4 4
4 4 4 4 3 4 5 5 5 5 4 5 5 5 6 7 7 7 7 7 6 6 6 6 5 5 5 5 5 5 6 5 5 4 4 4 4 4 4 4 4 5 5 4
5 5 5 5 4 4 4 5 5 5 4 5 5 5 5 6 6 6 7 7 7 6 5 5 5 6 5 5 5 6 5 5 5 4 4 4 4 4 5 5 4 4 4 4
7 6 6 6 5 5 5 5 5 6 5 5 5 5 5 6 5 6 6 7 7 6 5 5 6 6 6 6 6 6 6 6 5 4 5 5 4 4 5 5 5 5 4 4
8 7 7 7 7 6 5 6 6 6 6 5 6 5 6 6 6 6 6 7 7 7 6 6 7 7 7 7 7 6 6 6 5 5 6 5 5 5 5 5 5 5 4 4
8 8 8 7 7 6 6 6 7 7 7 7 6 6 6 7 7 7 7 7 8 7 7 7 7 7 7 7 7 7 7 6 6 6 6 6 6 6 6 5 5 5 5 5
8 8 8 8 7 7 6 6 8 8 8 8 7 7 6 7 8 8 7 7 7 8 7 7 7 7 7 7 7 7 7 7 7 7 7 7 7 7 6 6 5 5 5 5
9 9 9 8 8 8 7 7 8 8 8 8 8 7 7 7 7 8 7 7 7 7 7 7 7 7 7 8 7 7 7 7 7 8 8 7 8 8 7 6 6 6 6 6
10 10 10 9 8 8 8 9 9 9 9 9 9 8 7 7 7 8 8 8 7 7 7 7 7 7 7 7 7 7 7 7 8 8 8 8 8 8 7 6 6 6 7 7
11 10 10 10 9 9 9 9 10 10 11 11 10 9 8 8 8 8 8 8 7 7 8 8 8 8 8 7 7 8 8 8 8 9 8 8 8 7 7 7 7 6 7 7
12 11 10 10 10 10 11 11 11 12 12 12 11 10 9 8 8 9 9 9 8 8 8 9 9 9 9 9 9 9 9 9 9 9 9 8 7 7 8 7 7 7 7 7
13 12 12 12 11 11 12 12 12 13 13 12 12 11 10 10 10 10 9 9 9 9 10 9 9 9 10 10 10 10 10 10 10 9 9 8 8 8 8 8 8 7 7 7
15 14 14 13 13 13 13 13 13 13 14 13 13 11 10 11 11 10 9 9 10 10 10 10 10 10 10 10 10 10 11 10 10 10 9 9 9 9 9 9 8 8 7 8
16 16 16 15 15 14 14 13 13 14 14 14 13 11 11 11 11 11 10 9 9 10 10 10 10 10 11 11 11 12 12 12 11 11 11 11 11 11 10 10 9 9 9 9
16 17 17 16 15 15 15 14 14 15 14 14 13 12 12 12 12 12 12 11 11 11 11 11 11 11 12 12 12 12 12 12 12 12 12 12 12 12 11 11 11 11 11 10
17 18 18 17 16 15 15 15 15 15 15 14 14 12 13 13 13 13 13 13 13 13 13 13 13 13 13 13 13 13 13 13 12 11 12 12 13 12 12 12 12 12 12 12
19 19 19 17 17 17 16 15 15 15 15 15 14 13 14 15 15 14 14 14 14 14 15 15 15 14 14 14 14 14 14 13 13 13 12 13 14 14 14 14 14 14 14 13
21 20 20 19 18 18 15 16 16 16 16 15 15 15 15 15 15 15 15 15 15 15 15 15 15 15 15 14 14 14 14 14 14 14 14 14 15 16 16 16 15 15 15 15
22 22 21 21 20 19 17 17 17 17 16 16 16 16 16 16 16 15 16 16 16 16 16 16 16 16 16 15 15 15 15 15 15 15 15 15 16 16 17 17 17 17 16 16
23 23 22 22 22 21 18 18 19 19 18 17 17 17 17 17 17 16 17 17 17 17 17 17 17 17 17 16 15 15 16 16 15 15 15 16 16 16 16 17 17 18 18 17
24 24 23 22 23 22 21 21 21 21 19 19 19 19 19 18 18 18 18 18 18 18 18 18 17 17 17 17 16 16 16 16 16 16 16 16 16 17 17 17 18 18 18 18
25 25 24 24 24 23 22 23 23 22 22 21 21 21 21 20 20 19 20 20 20 19 19 19 19 18 18 18 18 18 18 17 17 17 18 18 17 18 17 18 18 19 19 19
26 26 26 26 25 24 24 24 24 24 24 24 23 23 23 22 22 22 22 21 21 20 20 20 21 20 19 19 19 20 20 19 19 19 19 19 19 19 19 19 19 20 21 21
28 29 28 28 27 26 26 26 26 26 26 26 25 25 24 24 23 23 23 23 22 21 21 22 22 21 21 20 20 20 20 20 20 20 20 20 20 20 20 20 21 21 22 22
29 29 28 28 27 27 26 26 27 27 27 26 26 26 25 25 24 24 24 24 23 23 22 23 22 22 22 21 21 20 21 21 21 22 22 22 22 22 22 22 22 23 23 24
28 29 29 28 27 27 27 27 28 28 28 28 27 27 26 25 24 24 24 24 23 24 24 23 23 23 23 23 22 22 23 23 23 24 24 24 23 24 24 24 24 25 25 26

GEFSCGP_500_meanwind_228.txt.gz
Wind_Speed
5 5 5 5 5 5 6 6 7 7 6 5 5 5 6 6 6 5 5 4 4 4 5 4 4 3 3 3 3 4 4 5 4 4 4 5 5 5 5 4 4 4 3 4
6 6 6 6 6 6 6 6 6 6 6 5 5 5 5 6 6 5 5 4 5 5 4 4 4 4 3 4 4 4 4 4 4 4 5 5 5 5 5 5 5 4 4 4
8 7 7 7 7 7 6 7 6 7 7 7 7 6 5 6 6 6 5 5 5 5 5 5 4 4 5 5 5 5 5 5 5 5 5 5 5 5 6 6 5 4 4 4
9 8 8 8 8 8 7 8 8 8 8 8 7 6 6 7 7 6 6 6 6 5 5 5 5 5 5 6 5 6 6 6 6 6 5 6 6 6 6 6 5 5 5 5
9 9 9 9 9 9 9 9 9 9 9 8 8 7 7 7 7 7 7 7 7 6 5 5 6 6 6 6 6 6 6 6 7 7 7 7 7 7 7 7 6 6 6 5
10 10 9 9 9 9 9 10 10 9 9 8 8 8 8 8 8 8 8 8 7 6 6 6 6 6 6 6 6 7 7 7 7 8 7 7 7 7 8 7 7 7 7 7
11 10 10 9 9 10 10 10 10 10 10 10 9 8 8 8 9 9 9 8 8 7 7 7 7 6 6 6 7 7 7 7 7 8 8 7 7 7 7 7 7 7 7 8
11 11 10 10 10 10 10 10 10 11 10 10 9 9 9 9 9 9 9 9 8 8 7 7 7 6 7 7 7 7 7 7 7 8 7 7 7 7 7 7 7 8 8 8
11 11 11 11 11 11 10 10 10 11 11 11 11 10 9 9 10 10 9 9 9 8 7 7 7 7 7 7 7 7 7 8 8 8 8 8 8 8 8 8 8 8 8 9
12 12 12 12 12 12 12 11 11 12 12 12 11 10 10 10 10 10 9 9 9 9 8 7 7 7 7 7 8 8 8 9 9 9 9 9 9 9 9 9 9 9 9 10
14 13 12 12 13 13 13 13 13 14 14 13 12 12 11 11 10 10 10 10 9 9 9 8 8 8 9 8 8 8 9 9 10 9 9 9 9 10 10 10 9 9 9 9
16 16 15 14 15 15 15 14 14 15 15 14 14 13 12 11 11 11 12 11 11 11 10 10 10 10 10 10 9 9 10 10 11 11 10 10 11 11 11 11 10 10 10 9
17 17 16 16 16 16 16 15 15 16 16 15 15 14 13 12 12 12 12 12 12 12 11 11 11 11 11 11 11 11 11 11 12 12 12 12 12 12 12 12 11 11 11 10
18 18 18 18 17 17 17 17 17 17 16 16 15 14 13 13 13 13 13 13 13 13 12 12 12 12 12 12 12 12 12 12 12 13 13 13 13 13 13 12 12 11 11 11
20 20 20 19 19 19 18 18 18 18 17 17 15 14 13 13 13 13 14 15 15 14 13 13 13 13 14 13 13 14 14 14 14 14 14 13 13 13 13 13 12 12 12 12
20 20 20 20 20 20 19 19 19 19 18 18 17 16 15 14 14 14 15 16 16 15 15 15 15 14 15 15 14 15 15 15 15 14 14 14 13 13 13 13 13 13 13 13
21 21 21 21 20 21 20 19 20 19 18 18 18 17 16 15 15 16 16 16 16 16 15 15 15 15 15 16 16 16 16 15 15 15 14 14 14 14 13 13 13 13 13 14
22 22 22 22 22 22 19 19 19 19 18 18 17 17 17 17 17 17 18 18 16 16 16 16 15 15 16 16 17 17 17 16 15 15 15 14 14 14 14 13 13 14 14 14
23 23 23 23 22 20 18 18 19 19 18 17 17 18 18 18 18 18 18 18 17 17 17 17 17 17 17 18 18 18 18 17 16 16 15 15 15 15 15 15 15 15 15 16
24 24 24 23 24 22 19 20 20 20 19 18 18 18 18 18 19 18 19 18 18 18 18 18 19 19 19 19 19 19 19 19 18 17 16 16 16 16 17 17 17 17 18 18
25 25 25 24 24 23 22 21 21 21 20 20 19 19 19 19 20 20 20 20 20 20 20 20 20 20 20 20 20 20 20 20 19 18 17 17 17 18 18 19 19 20 19 19
26 26 25 25 25 24 24 23 23 23 22 21 21 21 21 21 21 21 21 21 22 22 22 22 21 21 21 21 21 21 21 21 20 19 19 19 19 20 20 20 20 20 20 20
26 26 26 25 25 25 25 24 24 25 24 23 22 23 23 23 23 23 23 24 23 23 23 23 23 22 22 22 22 22 22 21 21 21 21 21 21 22 21 21 22 22 21 21
28 27 27 26 25 26 26 26 25 26 26 25 24 24 25 25 25 25 25 25 25 25 25 24 24 23 22 22 23 22 23 22 22 22 22 23 23 22 22 23 23 23 23 23
29 29 28 27 27 27 27 28 28 28 28 28 27 26 27 26 26 26 26 26 25 25 26 25 25 25 24 23 23 23 23 24 23 24 24 24 24 23 24 24 24 24 24 25
29 29 29 28 28 29 29 28 29 29 29 29 28 28 28 28 28 28 27 27 26 26 26 25 25 25 24 24 24 24 24 25 25 25 25 25 25 25 26 26 26 26 26 26

GEFSCGP_500_meanwind_234.txt.gz
Wind_Speed
5 4 3 3 3 3 4 4 5 5 6 6 6 6 6 7 7 7 7 6 5 5 4 4 4 4 4 4 4 4 4 3 3 3 3 3 3 3 3 3 3 3 3 4
6 5 4 4 4 4 4 4 4 5 5 6 6 6 6 7 7 7 6 6 5 5 5 5 4 4 4 4 4 4 4 4 4 3 3 3 3 4 4 4 4 4 4 4
7 6 5 4 4 4 4 4 5 5 6 6 7 6 7 7 7 7 7 6 6 6 5 5 5 5 5 5 4 4 5 5 4 4 4 4 4 4 5 5 5 4 5 5
7 7 6 6 5 5 6 6 6 6 6 6 7 7 7 7 7 7 7 6 6 6 6 6 6 6 6 5 5 5 5 5 5 5 5 5 5 5 6 6 5 5 6 6
8 7 7 7 7 7 7 7 7 7 6 6 6 7 7 8 7 7 7 6 6 6 6 6 6 6 6 6 5 5 6 6 5 6 6 5 5 6 6 6 6 6 6 6
9 8 8 8 8 8 8 7 7 7 7 7 7 7 8 8 8 8 8 7 7 7 7 7 6 6 7 7 6 6 6 6 6 6 6 6 6 6 6 6 6 6 7 7
10 9 9 9 8 8 7 7 8 8 8 8 8 8 8 9 9 8 8 8 7 7 7 7 7 7 7 8 7 7 7 7 7 7 7 7 7 7 8 8 8 8 8 7
10 10 10 9 9 9 8 8 8 9 9 10 9 9 9 9 9 9 8 8 7 7 7 7 7 7 7 7 7 7 7 7 7 8 8 9 9 8 8 9 9 9 9 9
11 11 11 10 10 9 9 9 10 10 10 10 10 10 10 10 10 9 9 9 8 7 7 7 7 7 7 7 7 7 7 8 8 9 9 9 9 9 9 10 10 10 10 10
12 12 11 11 11 11 11 10 11 11 12 12 11 11 11 11 10 10 10 10 9 8 8 8 8 8 8 8 7 8 8 8 9 9 9 9 10 10 10 10 10 10 10 10
12 12 12 12 12 12 12 12 12 13 13 13 13 12 12 12 11 10 10 10 10 10 9 9 9 9 9 9 9 9 9 9 9 9 10 10 10 10 10 10 10 10 10 10
14 14 14 13 13 13 13 13 14 14 14 14 14 14 12 12 13 12 11 11 11 11 10 10 10 10 10 10 10 10 10 11 11 11 11 11 11 11 11 11 10 10 10 10
15 15 15 15 15 15 14 14 14 14 15 14 14 15 14 13 13 13 13 12 12 12 12 12 12 12 12 12 12 12 12 12 13 13 12 11 12 11 11 11 11 11 11 11
17 16 16 16 16 16 15 15 15 15 15 15 15 15 15 15 15 15 14 14 13 13 13 13 13 13 13 13 13 13 13 13 13 13 13 12 12 12 12 12 12 11 11 11
18 18 18 18 18 18 17 17 16 16 16 17 16 16 16 17 16 16 15 14 14 14 14 14 14 14 14 14 13 13 13 13 13 14 13 13 12 12 12 13 13 13 12 12
20 20 20 19 19 19 19 18 18 17 17 17 17 16 16 17 16 17 16 15 15 14 14 14 15 15 15 14 14 14 14 14 14 14 14 14 14 14 14 14 14 14 14 14
21 21 21 21 21 20 19 18 18 18 18 19 19 18 18 18 17 17 17 16 16 15 14 15 15 15 15 15 15 15 15 15 15 15 15 15 15 15 15 15 16 15 16 16
22 22 22 22 22 21 19 20 19 19 19 19 19 18 18 18 18 18 18 17 16 16 15 15 15 16 16 15 15 15 15 15 15 16 16 16 16 16 17 17 17 17 17 18
23 23 23 23 22 20 20 20 19 18 18 18 19 18 18 18 18 18 19 18 17 17 17 16 16 16 16 16 16 16 16 16 16 17 17 17 18 18 19 19 19 19 19 19
24 24 24 23 22 21 20 20 19 19 18 17 17 17 17 17 18 17 18 18 18 18 18 18 17 17 18 18 18 18 18 18 18 19 19 19 20 20 20 20 21 21 20 20
25 25 25 24 24 22 22 22 20 20 19 19 19 18 18 17 18 18 19 19 19 20 20 20 19 19 19 20 20 20 20 20 20 20 20 21 21 22 21 21 21 21 21 21
25 26 25 25 26 24 23 22 22 22 21 21 20 20 20 19 19 20 20 20 20 21 21 21 21 21 21 21 21 21 21 21 21 21 21 21 21 22 23 22 23 23 23 22
26 26 26 26 26 26 25 25 24 24 24 23 23 22 22 22 22 21 21 21 21 22 22 22 23 23 23 23 23 23 22 23 23 22 22 22 22 22 23 23 23 24 24 23
27 26 26 26 26 27 26 26 26 26 25 25 25 24 23 23 23 23 23 23 23 24 24 24 24 24 24 24 24 24 24 24 23 23 22 22 22 23 23 24 24 24 25 25
29 28 27 27 26 27 27 27 27 27 27 27 26 26 25 25 25 25 25 25 25 25 25 25 25 25 25 25 25 24 24 24 24 23 23 24 24 24 24 24 25 26 26 26
27 28 28 27 27 27 27 27 27 27 27 27 27 28 28 27 26 26 26 26 26 26 26 26 25 25 25 25 25 25 25 25 24 24 24 25 25 25 26 26 26 26 26 27

GEFSCGP_500_meanwind_240.txt.gz
Wind_Speed
5 5 4 4 4 4 4 5 5 6 7 7 7 8 8 8 8 8 8 7 7 7 7 8 8 7 6 6 6 6 6 6 6 5 5 5 5 5 5 5 5 5 5 5
6 6 5 5 5 5 5 5 5 6 7 7 8 8 8 8 8 8 8 8 7 7 7 8 8 7 7 6 6 6 6 6 6 6 6 6 6 6 5 5 5 5 5 5
7 6 7 6 6 6 6 6 6 7 7 7 8 9 9 8 8 9 9 9 8 8 8 8 8 8 7 7 7 7 7 7 7 7 7 7 7 6 6 6 6 5 6 6
8 8 8 8 7 7 7 7 7 7 7 8 9 9 10 10 9 9 9 9 9 9 9 9 8 8 8 7 7 7 7 7 7 7 7 7 7 7 7 7 6 6 6 6
9 9 9 9 9 8 8 8 7 7 7 8 9 10 11 11 11 10 10 10 10 10 10 9 9 9 8 8 8 8 8 8 8 7 7 7 7 7 7 8 7 7 7 7
10 10 10 10 10 9 8 8 7 7 8 9 10 11 11 11 12 12 12 11 10 10 10 9 9 9 9 9 9 8 8 8 8 8 7 8 8 8 8 8 8 8 8 8
10 11 11 10 10 9 9 9 8 7 8 9 10 12 12 13 13 14 13 13 11 10 10 10 10 10 10 10 9 9 9 8 8 8 8 8 9 9 9 8 8 8 8 9
11 11 11 11 11 11 10 9 9 8 8 10 11 13 14 14 15 15 15 14 13 12 11 11 11 11 10 10 10 10 9 9 9 9 9 9 10 10 10 9 9 9 9 9
12 12 12 12 11 12 11 10 11 11 9 11 12 13 15 15 15 16 16 15 14 14 13 12 12 11 10 11 11 10 10 10 10 10 10 10 10 11 11 10 10 11 11 11
14 14 13 13 13 12 12 11 11 12 12 11 12 14 16 16 16 16 16 16 15 14 13 13 12 11 11 11 11 11 11 11 10 11 11 11 12 12 12 12 12 12 12 11
15 15 14 14 14 13 13 13 13 13 13 13 14 16 17 17 17 17 16 16 16 15 14 13 13 12 12 12 12 12 12 12 11 11 12 12 12 13 13 13 12 12 12 12
16 15 15 15 15 14 15 15 15 15 15 15 15 17 18 18 18 17 17 17 16 15 15 15 14 14 14 13 13 13 13 12 12 12 12 13 13 13 13 13 12 12 12 12
16 15 15 15 16 15 15 15 15 16 16 15 15 18 19 19 19 19 18 17 16 15 16 16 16 15 15 15 14 14 14 14 13 13 13 14 14 14 14 13 13 13 13 13
17 17 16 16 17 17 17 16 16 17 17 17 17 18 20 21 21 21 19 18 18 17 17 17 17 17 16 16 15 15 15 15 15 15 15 15 14 15 15 14 14 14 15 15
19 18 18 18 19 18 18 19 19 19 18 18 17 18 20 21 21 21 20 19 19 19 18 18 18 17 17 17 17 16 16 16 16 16 16 16 15 16 15 15 16 16 16 17
20 19 19 19 20 20 21 20 20 20 19 19 19 20 21 22 21 21 20 20 19 19 19 19 19 19 18 18 17 17 16 16 16 17 17 16 16 16 17 17 17 17 17 18
21 21 21 20 20 21 21 20 20 20 20 20 20 21 22 22 22 21 21 20 20 20 19 20 20 20 20 19 18 17 17 16 16 16 17 17 17 18 18 18 18 18 19 19
23 23 22 22 22 23 20 20 20 21 20 21 21 22 22 23 22 22 21 21 21 20 20 20 20 20 20 19 19 18 18 18 17 17 17 18 18 19 19 19 19 19 20 20
24 24 24 23 23 23 21 21 21 21 21 22 22 23 23 23 23 22 21 22 21 21 21 21 22 21 21 20 20 20 19 19 19 19 18 19 19 19 20 20 21 21 21 21
25 25 25 25 25 25 23 22 22 22 23 23 24 24 24 23 23 23 22 23 22 22 22 22 22 22 21 20 20 20 20 19 20 20 20 20 21 21 21 21 22 22 21 22
27 27 27 27 27 26 24 24 24 24 24 24 24 24 24 25 24 24 24 23 23 23 22 22 23 22 21 20 20 20 20 20 20 20 21 21 21 22 22 22 22 22 22 23
28 28 28 27 27 26 26 26 26 26 25 25 25 24 25 25 25 25 25 24 24 23 22 22 22 22 21 21 21 21 21 21 21 21 22 22 22 22 22 22 23 22 23 23
29 29 30 29 28 27 27 27 27 28 27 27 26 26 26 26 26 25 24 23 23 23 23 23 22 22 21 21 21 21 22 22 22 23 23 23 23 23 23 23 23 23 23 24
29 29 30 30 30 29 29 28 28 28 28 28 28 27 27 27 26 25 24 23 23 23 24 24 24 23 23 23 23 23 24 24 24 25 25 25 25 25 25 25 25 25 25 25
30 30 31 31 31 31 31 31 30 30 29 28 27 27 27 27 27 26 25 25 25 24 24 24 25 25 25 25 25 25 25 26 26 26 26 27 26 26 26 26 26 27 27 27
30 31 31 31 31 32 32 32 31 30 30 29 29 28 27 27 27 27 27 27 26 25 25 25 26 26 25 26 26 26 26 26 26 27 27 28 28 28 27 27 28 28 28 28

GEFSCGP_500_meanwind_246.txt.gz
Wind_Speed
6 6 5 5 5 4 4 3 2 1 1 2 3 3 3 4 4 4 5 5 5 5 5 5 5 6 6 6 6 5 5 4 3 3 4 4 3 3 3 3 3 3 3 3
7 6 6 5 5 5 5 4 3 3 3 2 3 3 4 3 4 4 4 5 5 6 5 5 5 5 6 6 6 6 5 4 4 4 4 4 4 4 3 3 4 4 3 4
7 6 6 6 5 5 5 4 4 4 4 4 4 4 4 4 4 4 4 4 5 6 6 6 6 6 6 6 6 6 5 4 4 4 4 4 5 4 3 3 4 4 5 5
7 7 7 7 6 6 6 6 6 5 5 5 5 4 4 4 5 5 5 4 5 6 6 6 6 7 7 7 7 7 6 5 5 5 5 5 5 5 5 4 4 4 5 5
7 7 7 7 7 7 7 7 7 7 7 7 6 5 5 5 5 6 5 6 6 7 7 7 7 8 8 7 7 7 7 6 6 6 6 5 5 5 5 5 5 5 5 5
8 8 8 8 8 9 8 8 9 9 8 8 7 6 6 6 6 6 6 7 7 8 8 8 9 9 9 8 8 8 8 7 7 7 6 6 6 6 6 5 5 6 6 6
10 9 9 9 8 9 10 9 9 9 9 8 8 8 7 7 7 8 8 8 9 9 8 9 10 10 9 9 9 9 9 8 8 8 7 7 7 7 7 7 6 7 7 7
11 10 9 9 9 9 10 11 11 10 10 9 9 9 9 9 9 9 10 10 10 10 9 9 9 9 9 9 9 9 9 9 9 9 9 9 9 8 8 8 8 8 8 8
11 11 10 10 9 10 10 11 11 12 11 11 11 11 10 10 10 10 10 11 11 11 11 10 10 10 10 10 9 10 10 10 10 10 10 10 10 10 10 10 10 10 10 10
11 12 11 11 11 11 11 11 12 12 12 13 12 12 11 11 11 11 11 11 11 11 11 11 11 11 11 10 10 11 11 11 11 10 10 10 10 11 11 12 12 12 12 12
12 12 12 12 12 12 12 12 13 13 14 14 15 13 13 12 12 13 13 13 12 12 12 12 12 12 12 12 12 12 12 12 12 12 12 12 12 12 12 12 12 12 12 12
14 13 13 13 13 13 13 13 14 14 14 15 17 15 15 14 13 13 14 14 14 13 13 13 13 13 13 13 13 13 13 13 13 13 13 13 13 13 13 13 13 13 13 13
14 14 14 14 14 14 15 14 14 15 16 17 18 17 16 16 15 15 15 15 14 13 14 14 14 14 14 14 14 14 14 14 14 15 15 14 14 14 14 14 14 14 14 14
16 16 15 15 15 16 16 16 16 16 17 18 19 18 17 17 16 16 16 16 15 15 14 14 14 14 14 14 15 15 15 16 16 16 16 16 15 15 15 15 15 14 14 14
17 17 17 17 17 17 17 17 17 18 17 18 18 18 18 18 18 18 17 17 16 16 15 15 15 15 16 16 16 16 16 16 16 16 16 16 17 17 17 16 15 15 15 15
18 18 18 18 18 19 19 18 18 18 18 18 18 18 18 18 18 18 18 17 16 16 16 16 16 16 16 16 17 17 18 17 17 17 17 17 18 18 18 17 16 16 16 16
19 19 19 20 20 21 20 18 19 19 19 19 19 19 18 18 18 18 18 17 18 18 18 18 17 17 17 17 17 18 18 18 17 17 17 17 18 17 17 17 17 17 17 17
21 21 21 21 21 22 19 19 19 20 20 20 20 19 19 19 18 18 18 19 19 19 19 18 17 17 17 17 18 18 18 18 17 17 17 17 17 18 17 16 17 17 16 16
23 22 23 22 23 22 20 20 20 21 20 20 20 19 19 19 19 19 19 20 20 20 19 19 18 19 18 18 19 19 18 18 17 17 18 18 17 17 17 17 17 17 18 18
25 25 24 24 24 23 21 20 21 22 21 20 20 20 20 20 20 20 21 21 20 20 20 20 20 20 20 20 19 19 18 18 18 17 17 17 17 17 18 18 18 18 19 19
25 26 26 26 26 25 23 22 22 23 21 21 21 21 21 21 21 21 21 22 22 22 22 21 21 21 20 20 20 20 19 19 19 18 18 18 18 19 19 19 19 20 20 20
27 28 27 27 27 25 23 23 23 23 22 23 23 22 23 23 22 22 22 23 23 23 22 22 21 21 21 21 21 21 20 20 20 19 19 19 20 20 21 20 20 21 21 21
28 28 29 29 28 26 25 25 25 25 25 24 24 24 24 24 24 24 23 23 23 23 22 22 22 21 21 22 22 22 22 22 22 21 21 21 21 22 22 22 22 23 23 23
28 28 29 29 28 27 27 26 26 26 26 26 25 25 25 25 25 25 24 24 24 23 23 23 23 23 23 23 22 22 22 22 22 23 22 23 23 23 23 23 24 24 24 24
29 28 29 29 29 29 28 27 27 27 27 26 26 27 27 27 27 26 26 25 25 25 24 24 24 24 24 24 23 23 22 22 23 23 23 24 24 24 25 25 25 26 26 26
30 29 29 28 28 29 29 28 27 27 27 27 27 27 27 28 28 27 27 27 27 26 26 26 25 25 25 24 24 24 23 23 23 24 24 25 25 26 26 26 27 28 28 28

GEFSCGP_500_meanwind_252.txt.gz
Wind_Speed
8 8 8 8 8 7 7 6 5 5 5 5 4 4 4 5 5 6 6 6 5 5 5 5 6 6 6 6 6 6 5 5 4 4 4 4 3 3 3 3 3 4 4 4
9 8 8 7 7 8 7 6 6 5 5 5 5 4 5 6 6 7 7 7 7 7 7 6 6 6 6 6 6 6 6 5 5 5 5 4 4 4 4 4 5 5 5 5
10 9 9 8 8 8 7 7 7 6 6 6 5 5 5 6 7 7 8 8 8 8 8 8 7 7 7 7 7 7 7 6 5 6 6 6 5 5 5 5 5 6 6 6
10 9 9 8 8 8 8 8 7 7 7 7 7 6 6 7 7 8 8 8 9 9 8 8 8 8 8 8 7 7 7 6 6 6 6 6 6 6 6 6 5 6 6 6
10 10 9 9 9 9 9 9 8 8 8 8 8 7 6 7 8 8 9 9 10 9 9 9 9 9 9 9 8 8 8 8 8 7 7 6 7 7 7 7 6 6 6 7
10 10 10 10 9 10 10 10 10 10 9 9 9 9 7 8 9 10 10 10 10 10 9 9 9 9 10 9 9 8 8 8 8 8 8 8 8 8 8 8 8 8 8 8
11 11 11 11 11 11 11 11 11 10 10 9 9 9 8 8 9 10 11 10 10 10 10 10 10 10 10 10 9 9 8 9 8 9 9 9 9 10 10 9 10 9 9 9
11 11 11 11 11 12 12 12 12 12 11 10 10 10 9 10 10 11 11 11 10 11 11 11 11 11 11 10 10 9 9 9 9 10 10 11 10 11 10 10 11 11 11 11
12 12 12 12 12 12 12 12 12 13 13 12 12 11 10 11 11 12 12 12 11 11 11 11 11 11 12 11 11 10 10 10 10 10 11 11 11 11 11 11 12 12 12 12
13 13 13 13 13 13 13 13 13 14 14 14 12 11 11 11 12 13 13 12 13 13 12 12 12 12 12 13 12 11 11 11 12 12 12 12 12 12 12 12 13 13 13 13
14 14 13 14 14 14 14 13 14 14 15 15 14 12 12 13 14 14 14 14 14 13 13 13 14 14 14 13 13 13 13 13 13 13 13 13 13 13 13 13 14 14 14 15
15 15 15 14 14 15 15 15 15 16 16 16 15 13 13 14 14 14 15 15 15 14 14 14 14 14 14 14 14 14 14 14 14 14 14 14 15 15 14 14 14 14 15 16
16 16 16 15 15 16 16 16 16 17 17 16 15 14 14 14 15 15 15 16 16 15 15 16 16 15 15 15 14 14 15 15 15 15 15 15 15 15 15 15 15 15 15 15
18 17 17 17 17 17 17 17 17 17 17 16 15 15 15 15 16 16 16 16 16 16 16 17 16 15 15 15 15 15 15 15 15 15 15 15 14 15 15 16 16 16 16 16
19 19 18 18 18 18 18 18 18 18 18 18 16 16 15 16 17 17 17 17 17 17 17 17 16 16 16 15 16 16 15 15 16 16 15 15 16 16 16 16 17 17 17 17
21 20 20 20 19 20 20 19 19 19 19 19 18 16 16 17 17 18 18 18 18 17 17 17 17 17 17 16 16 16 16 16 16 16 16 16 16 17 17 17 17 17 17 18
22 22 22 20 21 22 20 18 19 20 19 20 19 18 18 18 18 18 19 19 18 18 17 18 18 18 17 17 17 17 17 17 17 17 17 17 17 18 18 18 18 18 18 18
23 24 24 23 23 23 20 20 20 21 21 21 21 20 20 19 19 19 19 19 18 18 18 18 18 18 18 18 18 18 19 19 19 18 18 18 18 19 19 19 19 19 19 19
25 26 26 26 26 24 21 21 21 22 21 21 22 21 21 20 20 20 19 19 19 18 19 19 19 19 19 20 20 20 20 20 20 20 19 19 20 20 19 19 19 19 19 19
27 27 27 27 28 26 22 22 22 23 22 21 22 22 22 22 21 20 21 21 21 20 20 21 21 21 21 21 22 22 22 21 22 21 21 21 20 20 20 20 20 20 20 20
28 28 28 28 28 27 24 23 23 23 21 21 22 23 23 23 22 22 22 22 22 22 22 22 22 22 22 23 23 23 23 23 22 22 22 22 22 22 21 21 21 21 21 21
29 29 30 29 29 27 25 24 24 23 23 23 23 24 24 24 24 23 23 23 23 23 23 23 24 24 24 24 24 24 24 24 23 23 23 23 23 22 22 22 22 22 22 22
32 31 30 31 29 28 27 26 26 25 25 25 25 25 26 26 26 25 25 24 24 24 25 25 25 25 24 25 25 24 24 24 23 24 24 24 24 24 23 23 23 24 24 24
33 32 32 31 30 28 28 28 27 27 26 26 26 26 26 26 26 26 26 26 26 26 26 26 25 25 24 25 25 25 24 24 24 25 25 25 25 25 24 24 24 24 25 25
34 33 33 32 30 30 29 29 29 29 29 28 28 28 27 27 26 27 27 27 27 27 26 26 26 26 25 25 25 25 25 25 25 25 24 25 25 25 25 25 25 25 26 26
35 34 34 33 32 32 32 31 31 31 30 30 29 29 28 28 28 27 27 27 27 27 26 26 26 26 26 26 26 26 26 26 26 25 25 25 26 26 26 26 26 26 27 27

GEFSCGP_500_meanwind_258.txt.gz
Wind_Speed
7 7 7 7 7 6 6 6 6 6 6 6 6 6 6 5 5 5 6 6 6 6 7 6 7 7 7 7 7 6 6 6 6 6 5 5 5 5 5 5 5 6 6 6
7 7 7 7 7 6 6 6 6 6 6 6 6 6 6 6 6 6 7 6 7 7 7 8 8 8 8 8 8 7 7 7 7 7 7 6 6 6 5 6 7 6 7 7
8 7 7 7 7 7 6 6 7 7 7 7 7 7 7 7 7 7 8 8 8 8 8 8 9 9 9 9 8 8 8 8 8 8 8 8 8 7 7 7 7 8 8 8
8 7 7 7 6 6 6 7 7 7 7 7 7 6 7 7 8 8 8 8 8 8 8 9 9 9 9 9 9 8 8 8 8 8 8 8 8 8 8 8 8 8 9 10
9 8 7 7 7 7 7 8 7 7 7 7 7 7 7 8 8 8 8 8 8 8 9 9 9 9 9 9 9 9 9 9 9 8 8 8 8 8 9 9 9 9 9 10
9 9 9 8 8 8 8 8 8 8 8 7 8 8 8 8 8 8 9 9 9 9 9 9 9 9 10 10 10 10 10 9 9 9 9 9 9 9 10 10 10 10 10 10
10 10 10 9 8 8 8 8 9 9 9 9 9 9 9 9 9 9 9 9 9 10 10 10 10 10 11 11 11 11 11 10 10 10 10 10 10 10 10 10 11 11 11 11
11 11 10 10 9 9 9 9 9 10 10 11 10 9 10 11 11 10 10 10 10 10 11 11 11 12 12 12 12 12 12 11 11 11 10 10 11 11 11 12 12 12 12 12
12 12 11 11 10 10 9 9 10 11 11 10 10 10 10 12 12 11 11 11 11 11 12 12 12 13 13 12 12 12 12 12 11 11 12 12 12 12 12 13 13 14 14 14
14 14 13 12 12 12 11 11 11 11 11 11 11 11 11 12 13 13 12 12 12 12 12 13 13 13 13 13 13 13 12 12 12 13 13 13 13 13 13 13 14 14 14 15
15 15 14 14 14 13 13 13 12 13 13 12 12 12 12 12 13 13 13 13 13 13 14 14 14 14 14 14 13 13 13 13 13 14 15 15 15 14 14 15 15 15 15 15
15 15 15 16 16 15 15 14 14 14 14 14 14 13 12 13 13 14 14 14 14 14 14 14 14 14 14 14 13 13 13 13 14 14 14 15 15 15 15 16 16 16 15 15
16 16 16 16 16 16 16 16 15 15 15 14 14 14 14 14 14 14 14 15 15 16 15 15 15 14 14 15 15 14 14 14 14 14 15 15 15 15 15 16 16 16 16 16
17 17 17 16 16 17 17 17 17 16 16 16 15 15 15 15 15 15 15 16 16 16 16 16 16 16 15 15 15 15 15 15 15 15 15 16 16 16 16 16 16 16 16 16
19 18 18 18 17 18 18 17 17 17 17 17 16 16 16 16 16 16 16 16 17 16 16 16 16 16 15 16 16 16 16 16 16 16 16 16 16 16 17 17 16 16 16 16
20 20 20 20 19 19 19 17 18 18 17 17 17 16 16 17 17 17 17 17 17 17 16 16 16 16 16 16 16 17 16 17 17 17 17 17 17 17 17 17 17 17 16 17
21 21 21 21 20 21 20 18 18 18 18 18 18 17 17 18 18 18 18 17 17 17 17 17 17 17 18 18 18 18 18 18 18 18 18 18 18 18 18 18 18 17 17 18
23 22 22 22 22 22 18 18 19 19 19 19 19 19 19 19 19 19 19 19 19 18 18 18 17 17 18 18 19 19 19 19 19 19 19 20 19 19 19 19 19 19 19 19
24 24 24 24 24 23 20 19 20 21 20 20 20 21 21 21 20 20 20 20 20 20 19 19 19 19 19 20 21 20 20 20 20 21 21 20 20 20 20 20 20 20 20 20
26 25 25 25 25 25 23 21 21 22 21 20 21 21 22 21 21 21 21 21 21 21 21 21 21 21 21 21 21 21 21 21 21 21 21 21 21 21 21 21 21 21 21 21
27 27 27 27 27 26 25 23 22 23 22 22 22 22 22 22 22 22 21 21 21 21 21 21 21 22 22 22 22 22 22 22 22 22 22 22 22 22 22 22 22 22 22 23
29 29 29 29 29 28 26 25 25 24 24 24 24 24 24 23 23 23 23 23 22 22 22 22 22 22 22 22 22 22 22 22 22 22 22 23 23 23 23 23 23 23 23 23
31 31 31 31 30 29 28 28 27 26 26 25 25 25 25 25 24 24 24 24 24 23 23 23 23 23 23 24 24 23 23 23 23 23 23 23 24 24 24 24 24 25 25 24
32 32 32 32 31 30 30 30 29 29 28 27 27 27 27 26 26 26 25 25 26 25 25 24 24 24 24 25 25 25 24 24 24 24 24 24 25 25 26 26 26 26 26 26
33 32 32 32 32 31 31 31 31 31 30 29 29 28 28 28 27 27 26 27 27 27 26 26 25 25 25 25 25 25 25 25 25 25 25 25 25 26 26 26 26 26 26 26
34 34 33 33 32 33 33 32 32 31 31 30 30 30 30 29 29 29 29 28 28 28 27 27 27 27 27 27 26 26 26 25 25 25 25 25 26 26 26 26 25 25 25 26

GEFSCGP_500_meanwind_264.txt.gz
Wind_Speed
7 7 6 7 7 7 7 7 8 9 9 9 9 9 9 9 9 8 9 9 9 8 8 8 8 8 9 9 9 9 10 10 10 9 9 9 8 9 9 9 9 8 8 8
8 7 7 7 7 7 7 8 8 8 9 9 9 9 8 9 10 10 10 10 10 10 9 8 8 9 9 9 10 10 10 10 10 10 9 9 9 9 9 9 8 8 8 8
9 8 8 8 8 8 8 8 8 9 8 9 9 9 8 9 10 11 10 10 10 10 10 9 9 9 9 10 10 11 11 11 10 11 10 9 9 10 10 9 9 8 9 9
9 9 8 9 8 8 8 8 8 8 8 9 10 10 8 9 11 11 11 11 11 10 10 10 10 10 10 10 11 11 11 11 11 11 10 10 10 11 11 10 10 10 10 10
9 10 9 9 9 9 9 9 8 9 9 9 9 10 9 10 11 13 12 11 11 11 11 10 10 10 11 11 11 12 12 12 11 11 11 11 11 11 11 11 11 11 10 11
11 11 11 10 10 10 9 9 9 8 9 9 9 10 11 10 12 13 13 12 12 12 12 12 11 11 11 12 12 12 12 12 12 11 11 11 12 12 12 12 12 12 12 12
11 12 11 11 11 10 10 10 9 9 9 9 10 12 12 12 13 14 15 14 13 13 13 13 12 12 12 12 12 13 12 12 12 12 12 12 12 12 12 13 13 13 14 14
12 12 12 12 12 12 11 10 9 9 9 10 11 12 13 13 14 15 15 14 14 14 14 14 13 13 13 13 13 13 13 13 12 12 12 12 12 12 13 13 14 14 14 15
13 13 13 13 13 13 12 11 11 11 11 11 12 12 14 14 15 16 15 15 15 15 14 14 14 14 13 13 13 13 13 13 13 13 13 13 13 13 13 14 14 14 14 14
14 14 14 15 14 13 13 13 12 12 12 12 13 14 14 14 17 17 16 15 15 15 15 14 14 14 14 14 14 14 14 13 14 14 14 14 14 14 14 14 14 14 14 14
14 15 15 16 15 14 14 14 14 14 14 14 13 14 14 16 17 18 17 16 16 15 16 16 14 14 15 15 15 14 14 14 14 14 15 15 15 15 15 15 15 16 16 16
16 16 16 17 15 14 15 14 14 15 15 15 15 15 14 17 18 19 18 18 17 16 16 16 16 15 15 15 15 15 15 15 15 15 15 16 16 16 16 16 16 17 17 17
17 18 18 17 17 16 16 15 15 17 17 17 17 17 15 16 17 19 19 19 18 17 17 16 16 16 16 16 16 16 16 16 16 16 16 16 16 17 17 17 17 17 17 18
20 19 19 18 17 18 18 17 17 18 18 18 17 18 17 18 19 20 20 19 18 18 17 17 17 17 16 16 16 17 17 17 17 17 17 17 17 17 17 17 17 17 18 17
21 20 20 20 20 20 20 20 19 19 19 19 17 18 19 19 19 20 20 19 19 18 18 18 18 17 17 17 18 18 18 18 18 18 18 18 18 18 18 18 18 18 18 19
22 22 21 21 21 21 21 20 20 20 20 20 19 19 19 19 19 20 21 20 20 19 19 19 18 18 18 18 18 19 19 19 19 19 19 19 20 20 20 20 19 20 20 20
23 23 23 22 21 22 22 20 21 21 21 21 21 20 20 20 20 21 22 22 21 20 20 20 20 19 19 19 19 19 19 19 19 19 19 19 19 20 20 20 20 20 20 20
23 23 24 23 23 24 21 21 21 21 21 21 21 22 22 23 22 23 23 22 22 21 21 21 20 20 20 20 20 20 20 19 20 19 19 19 19 19 20 20 20 21 21 21
24 24 25 25 25 25 23 22 22 22 22 22 23 22 23 23 24 24 24 23 22 22 22 22 21 21 21 21 21 21 21 21 21 20 20 20 20 20 21 21 21 21 22 22
26 26 27 27 27 26 23 23 24 24 24 24 23 23 24 24 24 25 25 24 23 23 22 22 22 22 22 22 22 22 22 22 21 20 21 21 21 21 22 22 22 22 22 22
28 28 29 28 29 28 26 25 25 25 25 25 25 25 24 24 25 26 25 25 24 24 23 23 24 23 23 23 23 23 23 22 22 22 22 22 22 23 23 23 23 23 23 23
30 30 30 30 30 29 28 27 28 28 28 27 27 27 27 27 27 27 27 27 27 26 25 25 25 25 25 25 25 24 24 24 24 24 23 23 24 24 24 24 24 24 24 25
30 30 31 30 30 30 29 30 30 29 29 30 29 29 29 29 28 28 28 28 28 28 28 28 28 27 27 27 26 26 25 26 26 25 25 25 25 25 25 25 25 25 25 25
32 31 32 33 32 32 31 30 32 32 32 32 32 31 31 30 30 30 30 30 30 30 30 30 30 29 29 28 28 28 27 27 27 26 25 25 25 25 25 25 25 26 26 25
34 34 34 35 34 34 33 33 33 34 34 33 33 33 32 32 32 32 32 32 32 32 32 32 32 31 31 30 30 29 29 28 28 27 27 27 27 27 27 27 27 27 27 27
36 36 36 37 36 37 37 36 36 36 35 35 35 34 34 33 33 34 34 33 33 33 33 33 33 32 32 31 30 30 30 29 29 29 30 29 29 29 29 28 29 29 29 28

GEFSCGP_500_meanwind_270.txt.gz
Wind_Speed
8 7 7 6 6 6 5 5 5 5 5 5 5 5 4 5 5 5 4 5 5 5 5 4 4 5 5 5 6 6 6 6 6 6 6 6 6 6 6 6 6 6 6 6
8 8 7 7 7 6 7 7 6 6 6 6 5 4 4 4 5 5 5 5 5 5 5 5 6 5 5 6 6 6 7 7 7 7 6 6 6 6 7 6 6 7 7 7
8 8 8 8 8 8 7 7 7 6 6 6 5 4 4 4 4 5 4 5 6 6 5 6 6 6 6 6 6 7 7 7 8 8 7 7 7 7 7 7 7 7 8 8
9 9 9 8 8 8 7 7 8 8 7 7 6 4 4 4 4 4 5 6 6 5 5 6 6 6 6 7 7 8 8 8 8 8 8 8 8 8 8 8 8 8 8 9
10 10 10 10 9 9 8 8 8 8 7 7 6 6 4 4 4 4 5 6 7 6 6 6 7 7 7 8 8 8 8 9 8 8 9 9 9 9 9 9 9 9 9 9
11 11 11 10 10 9 8 8 8 8 8 8 7 6 4 5 5 5 6 6 7 7 7 7 8 8 8 8 8 8 9 9 9 9 9 10 10 10 10 10 10 10 10 10
11 12 11 11 10 10 9 9 9 9 9 9 9 8 6 6 6 6 7 7 8 8 8 8 8 9 9 9 9 10 10 10 10 10 10 10 11 11 11 11 11 11 11 11
12 12 11 11 11 10 10 10 11 11 10 10 10 10 8 8 8 8 7 8 8 9 8 8 8 9 9 9 10 10 10 10 10 10 10 10 11 11 11 12 12 12 11 11
12 12 11 12 12 12 11 11 11 12 12 12 11 11 10 10 9 9 9 9 9 9 9 9 9 9 9 9 10 10 10 10 10 10 10 10 11 11 12 12 12 11 11 11
13 12 11 11 12 12 11 11 12 12 13 13 11 9 9 9 9 10 10 9 9 10 10 10 10 11 10 10 11 11 11 11 11 11 11 11 12 12 12 12 12 12 12 12
14 13 12 12 12 12 12 13 13 13 13 12 11 9 10 11 11 10 11 11 11 12 11 11 11 11 11 11 11 12 12 12 12 12 12 12 12 13 13 12 12 12 13 13
14 14 14 13 13 13 14 14 14 14 13 14 14 12 12 13 13 12 12 12 13 12 12 11 11 12 12 12 12 12 13 13 13 13 13 13 13 13 13 13 13 13 14 14
15 15 15 14 14 15 15 15 15 15 16 16 16 14 13 14 14 13 13 13 13 12 12 13 13 13 13 14 14 14 14 14 14 15 15 15 14 14 14 14 14 14 15 15
16 16 16 15 15 15 16 16 16 17 18 18 17 15 14 14 15 14 14 14 14 14 14 14 14 15 15 15 15 15 15 15 15 16 15 15 15 15 15 15 15 16 15 16
18 18 18 17 17 17 17 17 18 18 18 18 17 17 15 15 15 15 15 15 16 15 15 15 15 16 16 16 16 16 16 15 16 16 16 15 15 16 16 16 16 16 16 16
19 19 19 18 18 19 19 19 19 19 19 18 17 17 17 17 17 17 17 17 17 16 16 15 16 16 16 16 16 17 16 16 17 17 16 16 16 16 16 16 16 16 16 17
20 20 20 19 19 19 20 18 19 18 18 19 19 18 19 19 19 19 18 17 17 17 17 16 17 17 17 17 17 17 17 17 17 17 17 17 17 17 16 16 16 16 17 17
21 21 21 21 21 22 18 19 19 19 20 20 20 20 21 20 20 19 19 19 19 18 18 18 18 19 19 18 19 19 19 18 18 18 18 18 18 17 17 17 17 17 17 18
22 22 22 22 23 23 20 20 19 20 21 20 20 20 21 20 20 21 21 20 19 19 20 20 21 21 21 20 20 20 20 19 19 19 19 19 19 19 18 18 18 18 18 18
25 24 24 24 25 24 21 20 20 21 22 21 22 22 22 22 22 22 22 22 22 22 22 22 23 23 22 21 21 21 20 20 20 20 20 20 20 19 19 19 19 19 19 19
26 26 26 25 25 24 23 22 22 23 23 22 23 23 23 23 24 23 24 25 25 25 24 24 24 24 23 23 23 22 22 22 22 22 21 21 21 21 21 21 21 21 21 21
27 27 27 27 27 25 25 24 24 24 24 24 24 24 25 25 25 25 26 26 26 26 26 25 25 25 25 24 24 24 24 24 24 24 23 23 22 23 23 23 22 22 22 22
29 28 29 29 29 28 27 26 26 26 26 27 27 26 26 27 27 27 27 27 27 27 27 27 27 27 26 26 25 25 25 25 25 25 25 25 24 24 24 24 24 24 24 24
31 30 31 31 30 30 29 29 28 28 28 28 29 29 28 28 29 30 29 29 29 29 29 29 29 28 28 28 27 27 27 27 27 26 27 26 26 26 26 26 26 26 26 27
32 33 33 33 32 32 31 30 30 31 31 30 31 32 32 31 31 31 31 31 31 31 31 31 30 30 30 29 29 29 29 29 28 28 28 28 28 28 28 28 28 28 28 28
33 34 34 33 33 33 32 32 32 33 34 34 34 34 33 33 32 32 32 32 32 32 32 32 32 32 31 31 30 30 30 30 30 30 30 30 30 30 30 30 30 30 30 30

GEFSCGP_500_meanwind_276.txt.gz
Wind_Speed
9 9 9 9 9 9 9 9 9 9 8 8 8 8 8 8 8 8 8 7 6 6 6 6 6 6 5 5 6 6 6 6 6 5 5 5 6 6 6 6 6 6 6 6
10 10 10 10 10 10 10 10 9 9 9 9 9 9 8 8 8 7 7 7 7 7 7 6 6 6 6 6 6 6 6 6 6 5 6 6 6 6 7 7 7 7 7 8
11 11 11 11 11 11 11 11 10 10 10 10 9 8 8 8 8 8 7 7 6 7 6 6 6 7 6 6 6 6 6 6 6 6 6 6 7 7 7 7 8 8 8 9
12 12 12 12 12 12 12 12 11 10 11 10 10 8 8 8 8 8 7 7 7 6 6 6 7 7 7 7 6 6 7 7 7 7 7 7 7 7 7 8 8 9 9 9
13 13 13 13 13 13 13 12 12 11 11 11 10 9 7 8 8 8 8 7 7 7 7 7 7 7 7 7 7 8 8 8 8 8 8 8 8 8 9 9 10 9 10 10
13 14 14 13 13 13 13 13 13 12 12 12 11 10 9 9 9 8 8 8 8 8 8 8 8 8 8 8 8 8 8 8 8 8 9 9 9 9 10 10 10 10 11 11
13 14 13 14 14 14 14 14 14 13 12 12 11 11 10 10 10 9 9 9 9 9 9 8 8 8 8 8 8 8 9 9 9 9 9 10 10 10 10 11 11 11 12 12
13 12 13 13 13 13 14 14 13 13 13 12 12 11 10 10 10 10 10 10 10 10 9 9 8 9 9 8 8 9 9 10 10 10 10 10 11 11 11 12 12 12 13 13
14 13 13 13 13 13 14 14 14 14 14 13 12 11 10 11 10 11 11 11 11 11 10 10 10 10 10 10 9 10 10 10 11 11 11 11 12 12 12 12 13 13 13 14
15 15 14 14 14 14 14 14 14 14 14 13 12 11 11 11 11 12 12 12 11 11 11 10 11 11 11 11 11 11 11 12 12 12 12 12 12 13 13 13 13 14 14 14
16 15 14 15 15 14 15 15 15 14 14 14 13 12 12 12 12 13 12 13 12 11 11 11 12 12 12 12 12 13 13 13 13 13 13 13 13 13 13 13 14 14 14 14
16 16 15 16 16 16 17 17 17 16 16 16 15 13 13 13 14 14 14 15 14 13 12 12 13 13 13 13 13 13 13 14 14 15 15 15 15 15 15 15 15 15 15 15
17 18 17 17 17 17 17 17 18 18 18 18 17 15 14 15 15 15 15 15 15 15 14 13 13 13 13 13 13 14 14 15 16 16 16 16 16 16 16 16 16 16 17 17
19 19 18 18 18 18 18 18 19 19 18 19 18 16 16 16 16 16 16 16 16 16 16 15 14 14 14 14 15 15 16 16 17 17 17 17 17 17 17 17 17 17 17 17
21 21 20 20 20 20 20 20 20 20 20 19 18 17 16 17 17 17 16 16 16 16 16 15 16 16 16 16 16 16 16 17 17 17 17 17 17 17 17 18 18 18 18 18
22 22 22 22 22 22 21 20 20 20 20 20 19 18 18 18 18 17 16 16 16 16 16 17 17 17 17 17 17 18 18 18 18 17 17 17 17 17 17 18 18 18 18 18
24 24 24 23 23 23 23 21 21 22 22 21 20 18 19 19 19 18 18 17 17 18 18 19 19 19 19 19 19 19 19 19 18 18 18 18 18 18 19 19 19 19 19 19
26 25 25 25 24 25 23 22 22 22 23 22 21 20 20 20 20 20 20 20 20 20 20 20 21 21 21 21 21 21 21 21 20 20 20 19 19 20 20 20 20 20 20 19
28 27 27 27 26 26 23 23 23 23 23 22 22 22 22 22 22 22 22 22 23 22 22 22 23 23 22 22 22 22 22 22 21 21 21 21 21 20 21 21 21 21 20 20
28 29 29 28 28 27 24 23 23 23 23 23 23 23 23 23 24 23 24 24 24 24 24 24 24 24 24 24 24 24 23 22 22 22 22 22 21 21 21 21 21 21 21 21
28 29 29 30 29 28 26 24 24 24 23 23 23 23 24 25 25 24 25 25 25 25 25 26 26 25 25 25 25 25 24 24 23 23 23 23 23 22 22 22 21 22 22 22
28 28 29 29 30 28 26 26 26 25 25 24 24 24 25 25 25 25 25 25 25 25 26 27 27 27 26 26 26 25 25 25 25 25 25 24 24 24 23 23 23 23 23 23
29 29 28 29 29 29 28 27 27 27 27 26 26 26 25 25 25 26 26 26 27 27 27 28 28 28 28 28 27 27 26 27 26 26 26 26 26 26 25 25 25 25 25 25
31 31 30 30 30 30 30 29 29 29 29 29 29 28 28 27 27 28 28 28 28 28 28 28 29 29 29 29 30 30 29 29 29 28 27 27 28 27 27 27 27 27 27 27
31 31 32 32 31 32 32 32 32 32 31 31 30 30 31 30 30 29 29 29 29 30 30 30 30 30 30 31 31 32 31 31 31 31 30 30 29 29 29 29 29 29 29 29
30 32 33 33 32 32 32 32 33 33 34 34 33 32 33 33 32 33 32 32 32 32 32 32 32 31 31 31 31 32 32 32 32 32 32 32 32 32 32 31 31 31 31 31

GEFSCGP_500_meanwind_282.txt.gz
Wind_Speed
8 8 8 8 8 8 8 8 9 9 9 8 8 8 8 8 8 8 7 7 8 7 7 7 7 6 6 6 6 6 6 6 6 6 5 5 5 6 6 6 6 6 7 7
9 9 10 10 9 9 9 9 9 9 9 8 8 9 9 9 9 8 8 7 7 8 8 8 8 7 7 7 7 6 6 6 6 6 6 6 6 6 6 6 7 7 7 8
10 11 11 11 11 10 9 9 9 9 9 9 9 9 9 9 9 9 8 7 7 7 7 8 8 7 7 7 8 7 7 7 7 7 7 7 7 7 7 7 8 8 9 9
12 12 12 12 11 10 10 9 9 9 9 9 9 9 9 9 9 9 8 7 7 8 8 9 8 8 8 7 8 8 7 7 7 7 7 7 7 7 8 8 9 9 10 10
12 12 12 11 11 11 10 10 10 10 9 9 10 10 9 9 8 8 8 8 8 9 9 9 9 8 8 8 8 8 8 8 8 8 8 8 8 8 8 9 9 10 10 10
11 11 11 11 11 11 11 11 11 11 10 10 10 10 9 9 9 9 9 9 9 9 10 10 10 9 9 9 9 9 9 9 9 9 9 9 9 9 10 10 10 11 11 11
12 12 12 11 11 11 11 11 11 11 12 11 11 11 11 10 10 10 10 10 9 10 11 10 10 10 10 10 10 10 10 10 10 10 10 11 11 11 11 11 11 11 12 12
13 13 13 12 12 12 11 11 11 11 11 12 11 11 11 11 11 11 11 10 10 10 11 11 11 11 11 11 11 11 11 10 11 11 11 12 12 11 11 11 12 12 12 13
14 14 14 13 12 12 12 11 12 12 12 12 12 11 12 12 12 12 12 12 11 11 12 12 12 12 12 12 12 12 12 12 12 12 12 12 12 12 12 12 13 13 13 13
15 15 15 14 14 13 13 13 13 13 13 13 12 12 11 12 12 13 13 13 13 13 13 13 13 13 13 14 14 14 13 13 12 12 13 13 13 13 13 14 14 13 13 13
17 17 16 15 15 14 14 14 14 14 15 14 14 13 12 12 13 13 14 14 14 14 14 14 14 15 15 15 14 14 14 14 13 13 14 14 14 14 14 15 15 15 15 15
18 18 18 17 16 16 16 16 16 16 16 16 15 14 14 13 14 14 15 15 15 16 16 16 15 15 15 15 14 14 14 15 15 15 15 15 15 15 15 16 16 16 16 16
19 19 19 18 18 18 18 18 17 18 18 18 17 16 16 15 15 15 15 15 16 16 16 16 15 15 15 15 15 15 15 15 16 16 16 16 16 17 17 17 17 17 17 17
21 21 20 20 20 20 19 19 19 19 19 19 17 16 17 16 16 16 15 15 15 15 15 15 15 15 15 16 16 16 17 17 17 17 17 17 18 18 18 18 18 18 18 18
22 22 21 21 21 21 21 20 20 20 20 19 18 17 16 17 17 16 16 16 15 15 15 15 16 16 16 17 17 18 18 18 18 19 19 19 19 19 19 19 19 19 19 19
23 23 22 22 23 23 22 21 21 21 20 20 19 18 17 18 17 17 17 16 16 16 16 16 17 18 18 18 19 19 19 19 19 19 19 19 20 20 20 20 20 19 19 20
24 24 23 23 23 24 24 22 21 21 21 21 20 18 18 19 18 18 18 18 18 18 18 19 19 20 20 20 20 20 20 20 20 20 20 20 20 20 20 20 20 20 20 20
24 24 25 25 24 25 24 23 23 22 21 21 21 20 20 20 19 20 20 20 20 20 20 21 21 21 21 21 21 21 21 21 21 22 21 21 20 20 19 19 20 20 20 20
24 25 25 25 25 26 25 23 23 23 23 22 22 22 22 21 21 22 21 21 22 21 21 22 22 23 23 22 22 22 22 22 22 22 22 21 21 21 20 20 20 20 20 20
24 25 25 24 25 25 24 23 23 23 23 23 23 23 23 23 23 23 22 22 23 23 22 22 23 23 23 24 24 24 23 23 23 24 23 23 22 22 21 21 21 22 22 22
24 24 24 24 24 24 23 22 22 23 23 23 24 24 24 24 24 24 23 23 24 24 24 24 24 24 24 24 24 25 25 25 25 25 25 25 24 23 23 23 23 23 23 23
25 24 23 24 24 24 23 22 23 24 24 24 25 25 25 25 25 25 25 24 24 25 25 25 26 26 25 25 25 25 26 26 26 26 25 25 25 25 25 25 25 25 25 25
25 25 25 25 26 24 24 24 24 24 25 25 25 25 26 26 26 26 27 27 27 27 27 27 27 27 28 28 27 28 27 27 27 27 27 27 27 27 26 26 26 26 26 26
26 26 26 27 27 27 26 26 26 26 27 27 28 27 27 28 27 28 29 28 29 29 29 29 30 30 30 29 29 29 29 28 28 27 28 28 28 28 27 27 27 27 27 27
26 26 27 28 28 29 28 28 27 27 28 29 29 29 29 29 29 29 29 30 30 30 30 30 31 31 31 31 30 30 30 30 29 28 28 28 28 28 29 29 29 29 29 30
26 27 28 29 29 30 29 29 29 29 28 29 30 30 31 31 30 30 29 29 30 31 31 31 31 31 31 31 32 32 32 31 31 30 30 30 30 30 30 31 31 31 31 31